User: anonymous   Login
Location: Airlie Beach - Cannonvale QLD, Australia
(20.2768°S, 148.7558°E)
Time: 04:54:43
(UTC+10:00)
Language:

BlueWalker 3 - Orbit

View from above orbital plane
View from above orbital plane
View from above satellite
View from above satellite

Ground track
Ground track

The orbit data is extracted from the following two-line orbital elements,

1 53807U 22111AL  23151.72367991  .00004379  00000-0  21081-3 0  9994
2 53807  53.1966 148.5858 0013162   2.7917 357.3151 15.20730087 39946
Epoch (UTC): 31 May 2023 17:22:05
Eccentricity: 0.0013162
inclination: 53.1966°
perigee height: 494 km
apogee height: 513 km
right ascension of ascending node: 148.5858°
argument of perigee: 2.7917°
revolutions per day: 15.20730087
mean anomaly at epoch: 357.3151°
orbit number at epoch: 3994

The dashed part of the orbit path shows where the satellite is in the earth's shadow,  

DLR